Location: Unspecified
(43.4354°N, 0.0000°E)
Time: 07:41:27
(UTC+00:00)

Tiros 1 despin weight - Pass Details

Date: 26 June 2019
Orbit: 594 x 642 km, 48.2° (Epoch: 20 July)

Event Time Altitude Azimuth Distance (km) Brightness Sun altitude
Rises 23:24:23 0° 270° (W) 2,856 ? -22.6°
Reaches altitude 10° 23:26:46 10° 276° (W) 1,946 ? -22.7°
Maximum altitude 23:31:05 48° 351° (N) 788 ? -22.8°
Drops below altitude 10° 23:35:23 10° 67° (ENE) 1,931 ? -22.9°
Sets 23:37:44 0° 73° (ENE) 2,831 ? -23.0°
